Flag for U.S.A. Weather past 2 weeks in Inglewood, California, U.S.A.

Now
72 °F

Clear.


Feels Like: 75 °F
Forecast: 69 / 82 °F
Wind: No wind

Location: Hawthorne Municipal Airport

Current Time: Jul 25, 2014 at 2:45:38 AM

Latest Report: Jul 25, 2014 at 1:53 AM


Visibility: 10 mi

Pressure: 29.85 "Hg

Humidity: 68%

Dew point: 61 °F

Location of InglewoodLocation

Historic Weather in Inglewood — Graph

°F

Inglewood temperature yesterday

Maximum temperature yesterday: 86 °F (at 10:53 AM)
Minimum temperature yesterday: 67 °F (at 2:53 AM)
Average temperature yesterday: 75 °F

Past Weeks' High & Low Weather Summary

 TemperatureHumidityPressure
High86 °F (Jul 24, 10:53 AM)90% (Jul 13, 5:53 AM)30.07 "Hg (Jul 13, 5:53 AM)
Low66 °F (Jul 18, 3:53 AM)41% (Jul 23, 1:53 PM)29.74 "Hg (Jul 24, 5:53 PM)
Average71 °F73%29.96 "Hg
* Reported Jul 10 1:53 AM — Jul 25 1:53 AM, Inglewood, Weather by CustomWeather, © 2014

Note: Actual official high and low records may vary slightly from our data, if they occured in-between our weather recording intervals... More about our weather records

Advertising

Inglewood weather history for previous 24 hours

 ConditionsComfort  
Time TempWeatherWind HumidityBarometerVisibility
1:53 AM
Jul 25
72 °FClear.No wind68%29.85 "Hg10 mi
12:53 AM73 °FClear.No wind62%29.83 "Hg10 mi
11:53 PM
Jul 24
72 °FClear.No wind71%29.82 "Hg10 mi
10:53 PM71 °FClear.3 mph71%29.80 "Hg10 mi
9:53 PM72 °FClear.5 mph66%29.79 "Hg10 mi
8:53 PM73 °FSunny.7 mph66%29.77 "Hg10 mi
7:53 PM74 °FSunny.7 mph69%29.75 "Hg10 mi
6:53 PM78 °FSunny.8 mph56%29.74 "Hg10 mi
5:53 PM82 °FSunny.9 mph49%29.74 "Hg10 mi
4:53 PM82 °FSunny.12 mph53%29.75 "Hg10 mi
3:53 PM83 °FSunny.12 mph50%29.78 "Hg10 mi
2:53 PM83 °FSunny.12 mph46%29.79 "Hg10 mi
1:53 PM84 °FSunny.12 mph46%29.80 "Hg10 mi
12:53 PM82 °FSunny.10 mph51%29.82 "Hg10 mi
11:53 AM85 °FSunny.8 mph48%29.83 "Hg10 mi
10:53 AM86 °FSunny.5 mph45%29.83 "Hg10 mi
9:53 AM81 °FSunny.No wind53%29.85 "Hg10 mi
8:53 AM75 °FSunny.3 mph66%29.86 "Hg10 mi
7:53 AM71 °FSunny.No wind73%29.87 "Hg10 mi
6:53 AM69 °FClear.No wind81%29.87 "Hg10 mi
5:53 AM67 °FClear.No wind85%29.86 "Hg10 mi
4:53 AM67 °FClear.No wind85%29.85 "Hg10 mi
3:53 AM67 °FClear.No wind87%29.85 "Hg10 mi
2:53 AM67 °FClear.No wind85%29.86 "Hg10 mi
Weather by CustomWeather, © 2014

See weather overviewHow to use our weather pages